TimeEDT,TemperatureF,Dew PointF,Humidity,Sea Level PressureIn,VisibilityMPH,Wind Direction,Wind SpeedMPH,Gust SpeedMPH,PrecipitationIn,Events,Conditions,WindDirDegrees,DateUTC
12:54 AM,70.0,57.9,65,30.16,10.0,SSW,6.9,-,0.00,Rain,Light Rain,210,2013-06-23 04:54:00
1:54 AM,69.1,57.9,68,30.16,10.0,SSW,5.8,-,0.00,Rain,Light Rain,210,2013-06-23 05:54:00
2:54 AM,69.1,57.0,65,30.14,10.0,SSW,5.8,-,0.00,Rain,Light Rain,200,2013-06-23 06:54:00
3:54 AM,68.0,57.0,68,30.13,10.0,SSW,5.8,-,0.00,,Mostly Cloudy,200,2013-06-23 07:54:00
4:54 AM,68.0,57.0,68,30.13,10.0,SSW,5.8,-,N/A,,Clear,210,2013-06-23 08:54:00
5:54 AM,68.0,55.9,65,30.14,10.0,SSW,4.6,-,N/A,,Clear,210,2013-06-23 09:54:00
6:54 AM,68.0,57.0,68,30.14,10.0,SSW,5.8,-,N/A,,Clear,200,2013-06-23 10:54:00
7:54 AM,72.0,59.0,64,30.15,10.0,SW,6.9,-,N/A,,Clear,220,2013-06-23 11:54:00
8:54 AM,73.9,61.0,64,30.15,10.0,SSW,5.8,-,N/A,,Partly Cloudy,210,2013-06-23 12:54:00
9:54 AM,77.0,62.1,60,30.13,10.0,WSW,3.5,-,N/A,,Clear,240,2013-06-23 13:54:00
10:54 AM,82.0,66.0,58,30.12,10.0,SW,6.9,-,N/A,,Clear,220,2013-06-23 14:54:00
11:54 AM,84.0,66.9,56,30.11,10.0,SW,6.9,-,N/A,,Scattered Clouds,220,2013-06-23 15:54:00
12:54 PM,87.1,68.0,53,30.09,10.0,SSW,5.8,-,N/A,,Mostly Cloudy,210,2013-06-23 16:54:00
1:54 PM,90.0,69.1,50,30.06,10.0,SSW,11.5,17.3,N/A,,Clear,210,2013-06-23 17:54:00
2:54 PM,90.0,70.0,52,30.04,10.0,SSW,9.2,-,N/A,,Clear,210,2013-06-23 18:54:00
3:54 PM,89.1,69.1,52,30.01,10.0,SSW,11.5,18.4,N/A,,Mostly Cloudy,210,2013-06-23 19:54:00
4:54 PM,90.0,69.1,50,30.00,10.0,SW,11.5,20.7,N/A,,Partly Cloudy,220,2013-06-23 20:54:00
5:54 PM,89.1,66.9,48,29.98,10.0,SW,13.8,21.9,N/A,,Clear,220,2013-06-23 21:54:00
6:54 PM,86.0,66.9,53,30.01,10.0,SW,12.7,23.0,N/A,,Clear,220,2013-06-23 22:54:00
7:54 PM,84.0,64.9,53,30.00,10.0,SSW,13.8,20.7,N/A,,Clear,210,2013-06-23 23:54:00
8:54 PM,82.0,64.9,56,30.03,10.0,SSW,12.7,-,N/A,,Clear,210,2013-06-24 00:54:00
9:54 PM,80.1,66.0,62,30.05,10.0,SW,6.9,-,N/A,,Clear,220,2013-06-24 01:54:00
10:54 PM,78.1,66.9,68,30.04,10.0,SW,8.1,-,N/A,,Clear,220,2013-06-24 02:54:00
11:54 PM,77.0,66.9,71,30.02,10.0,SW,9.2,-,N/A,,Clear,220,2013-06-24 03:54:00